Terminal Aerodrome Forecast
Issued by NWS Jackson, MS

Home | Current Version | Previous Version | Text Only | Print | Product List | Glossary On
Versions: 1 2 3 4 5 6 7 8 9 10 11 12 13 14 15 16
911
FTUS44 KJAN 090522
TAFGLH
TAF
KGLH 090522Z 0906/1006 36004KT P6SM SKC WS011/01038KT
     FM091500 03009KT P6SM SKC=

USA.gov is the U.S. government's official web portal to all federal, state and local government web resources and services.